Time,TemperatureF,DewpointF,PressureIn,WindDirection,WindDirectionDegrees,WindSpeedMPH,WindSpeedGustMPH,Humidity,HourlyPrecipIn,Conditions,Clouds,dailyrainin,SoftwareType,DateUTC
2013-01-13 00:02:00,3.0,-3.0,29.90,SW,215,0.0,2.0,76,0.00,,,0.00,,2013-01-13 07:02:00,
2013-01-13 00:12:00,3.0,-3.0,29.90,SW,215,0.0,2.0,76,0.00,,,0.00,,2013-01-13 07:12:00,
2013-01-13 00:22:00,3.0,-3.0,29.90,SSW,213,0.0,0.0,76,0.00,,,0.00,,2013-01-13 07:22:00,
2013-01-13 00:32:00,2.0,-4.0,29.91,SW,214,0.0,0.0,76,0.00,,,0.00,,2013-01-13 07:32:00,
2013-01-13 00:42:00,2.0,-4.0,29.91,SW,214,0.0,0.0,76,0.00,,,0.00,,2013-01-13 07:42:00,
2013-01-13 00:52:00,2.0,-4.0,29.91,SW,214,0.0,0.0,76,0.00,,,0.00,,2013-01-13 07:52:00,
2013-01-13 01:02:00,2.0,-4.0,29.91,SW,214,0.0,2.0,77,0.00,,,0.00,,2013-01-13 08:02:00,
2013-01-13 01:12:00,2.0,-4.0,29.91,SW,214,0.0,2.0,77,0.00,,,0.00,,2013-01-13 08:12:00,
2013-01-13 01:22:00,2.0,-4.0,29.91,SW,214,0.0,0.0,76,0.00,,,0.00,,2013-01-13 08:22:00,
2013-01-13 01:32:00,2.0,-4.0,29.90,SW,214,0.0,0.0,76,0.00,,,0.00,,2013-01-13 08:32:00,
2013-01-13 01:42:00,2.0,-4.0,29.90,SW,214,0.0,0.0,76,0.00,,,0.00,,2013-01-13 08:42:00,
2013-01-13 01:53:00,2.0,-4.0,29.90,SW,214,0.0,0.0,76,0.00,,,0.00,,2013-01-13 08:53:00,
2013-01-13 02:02:00,1.0,-5.0,29.90,SW,214,0.0,0.0,75,0.00,,,0.00,,2013-01-13 09:02:00,
2013-01-13 02:12:00,0.0,-6.0,29.91,SW,214,0.0,0.0,75,0.00,,,0.00,,2013-01-13 09:12:00,
2013-01-13 02:22:00,0.0,-6.0,29.91,SW,214,0.0,0.0,75,0.00,,,0.00,,2013-01-13 09:22:00,
2013-01-13 02:32:00,0.0,-6.0,29.89,SW,215,0.0,0.0,75,0.00,,,0.00,,2013-01-13 09:32:00,
2013-01-13 02:42:00,0.0,-6.0,29.89,SW,215,0.0,0.0,75,0.00,,,0.00,,2013-01-13 09:42:00,
2013-01-13 02:52:00,0.0,-6.0,29.89,SW,214,0.0,0.0,75,0.00,,,0.00,,2013-01-13 09:52:00,
2013-01-13 03:02:00,0.0,-6.0,29.89,SW,214,0.0,0.0,75,0.00,,,0.00,,2013-01-13 10:02:00,
2013-01-13 03:12:00,0.0,-6.0,29.89,SW,214,0.0,0.0,75,0.00,,,0.00,,2013-01-13 10:12:00,
2013-01-13 03:22:00,0.0,-6.0,29.89,SW,214,0.0,0.0,75,0.00,,,0.00,,2013-01-13 10:22:00,
2013-01-13 03:32:00,0.0,-6.0,29.90,SW,214,0.0,0.0,75,0.00,,,0.00,,2013-01-13 10:32:00,
2013-01-13 03:42:00,0.0,-6.0,29.90,SW,214,0.0,0.0,75,0.00,,,0.00,,2013-01-13 10:42:00,
2013-01-13 03:52:00,0.0,-6.0,29.90,SW,214,0.0,0.0,74,0.00,,,0.00,,2013-01-13 10:52:00,
2013-01-13 04:02:00,-1.0,-7.0,29.89,SW,214,0.0,0.0,74,0.00,,,0.00,,2013-01-13 11:02:00,
2013-01-13 04:12:00,-1.0,-7.0,29.89,SW,214,0.0,0.0,74,0.00,,,0.00,,2013-01-13 11:12:00,
2013-01-13 04:22:00,-1.0,-7.0,29.88,SW,214,0.0,0.0,74,0.00,,,0.00,,2013-01-13 11:22:00,
2013-01-13 04:32:00,-1.0,-7.0,29.87,SW,214,0.0,0.0,74,0.00,,,0.00,,2013-01-13 11:32:00,
2013-01-13 04:42:00,-1.0,-7.0,29.87,SW,214,0.0,0.0,74,0.00,,,0.00,,2013-01-13 11:42:00,
2013-01-13 04:53:00,-1.0,-7.0,29.87,SSW,213,0.0,0.0,74,0.00,,,0.00,,2013-01-13 11:53:00,
2013-01-13 05:03:00,-1.0,-7.0,29.88,SW,214,0.0,0.0,74,0.00,,,0.00,,2013-01-13 12:03:00,
2013-01-13 05:12:00,-1.0,-7.0,29.88,SW,214,0.0,0.0,74,0.00,,,0.00,,2013-01-13 12:12:00,
2013-01-13 05:22:00,-1.0,-7.0,29.88,SW,214,0.0,0.0,74,0.00,,,0.00,,2013-01-13 12:22:00,
2013-01-13 05:32:00,-1.0,-7.0,29.89,SW,214,0.0,0.0,74,0.00,,,0.00,,2013-01-13 12:32:00,
2013-01-13 05:42:00,-1.0,-7.0,29.89,SW,214,0.0,0.0,74,0.00,,,0.00,,2013-01-13 12:42:00,
2013-01-13 05:53:00,-1.0,-7.0,29.90,SW,214,0.0,0.0,74,0.00,,,0.00,,2013-01-13 12:53:00,
2013-01-13 06:02:00,-2.0,-8.0,29.90,SW,214,0.0,0.0,74,0.00,,,0.00,,2013-01-13 13:02:00,
2013-01-13 06:12:00,-2.0,-8.0,29.90,SW,214,0.0,0.0,74,0.00,,,0.00,,2013-01-13 13:12:00,
2013-01-13 06:22:00,-2.0,-8.0,29.91,SW,214,0.0,0.0,74,0.00,,,0.00,,2013-01-13 13:22:00,
2013-01-13 06:33:00,-2.0,-8.0,29.91,SW,215,0.0,0.0,74,0.00,,,0.00,,2013-01-13 13:33:00,
2013-01-13 06:42:00,-2.0,-8.0,29.91,SW,215,0.0,0.0,74,0.00,,,0.00,,2013-01-13 13:42:00,
2013-01-13 06:53:00,-2.0,-8.0,29.92,SW,214,0.0,0.0,74,0.00,,,0.00,,2013-01-13 13:53:00,
2013-01-13 07:03:00,-2.0,-8.0,29.92,SW,214,0.0,0.0,75,0.00,,,0.00,,2013-01-13 14:03:00,
2013-01-13 07:12:00,-2.0,-8.0,29.92,SW,214,0.0,0.0,75,0.00,,,0.00,,2013-01-13 14:12:00,
2013-01-13 07:22:00,-1.0,-7.0,29.93,SW,214,0.0,0.0,75,0.00,,,0.00,,2013-01-13 14:22:00,
2013-01-13 07:33:00,-1.0,-7.0,29.93,SW,214,0.0,0.0,75,0.00,,,0.00,,2013-01-13 14:33:00,
2013-01-13 07:43:00,-1.0,-7.0,29.93,SW,214,0.0,0.0,75,0.00,,,0.00,,2013-01-13 14:43:00,
2013-01-13 07:53:00,-1.0,-7.0,29.94,SW,214,0.0,0.0,75,0.00,,,0.00,,2013-01-13 14:53:00,
2013-01-13 08:03:00,0.0,-6.0,29.93,SW,214,0.0,0.0,76,0.00,,,0.00,,2013-01-13 15:03:00,
2013-01-13 08:12:00,0.0,-6.0,29.93,SW,214,0.0,0.0,76,0.00,,,0.00,,2013-01-13 15:12:00,
2013-01-13 08:23:00,1.0,-4.0,29.93,SW,214,0.0,0.0,77,0.00,,,0.00,,2013-01-13 15:23:00,
2013-01-13 08:33:00,2.0,-4.0,29.94,SSW,213,0.0,0.0,75,0.00,,,0.00,,2013-01-13 15:33:00,
2013-01-13 08:43:00,2.0,-4.0,29.94,SSW,213,0.0,0.0,75,0.00,,,0.00,,2013-01-13 15:43:00,
2013-01-13 08:53:00,3.0,-3.0,29.95,SW,214,0.0,0.0,74,0.00,,,0.00,,2013-01-13 15:53:00,
2013-01-13 09:03:00,4.0,-3.0,29.95,SSW,213,0.0,1.0,72,0.00,,,0.00,,2013-01-13 16:03:00,
2013-01-13 09:12:00,4.0,-3.0,29.95,SSW,213,0.0,1.0,72,0.00,,,0.00,,2013-01-13 16:12:00,
2013-01-13 09:23:00,4.0,-4.0,29.96,SSW,213,0.0,3.0,70,0.00,,,0.00,,2013-01-13 16:23:00,
2013-01-13 09:33:00,4.0,-4.0,29.95,SSW,213,2.0,2.0,70,0.00,,,0.00,,2013-01-13 16:33:00,
2013-01-13 09:43:00,4.0,-4.0,29.95,SSW,213,2.0,2.0,70,0.00,,,0.00,,2013-01-13 16:43:00,
2013-01-13 09:53:00,5.0,-2.0,29.96,SW,223,1.0,4.0,71,0.00,,,0.00,,2013-01-13 16:53:00,
2013-01-13 10:03:00,5.0,-2.0,29.95,SW,225,1.0,4.0,71,0.00,,,0.00,,2013-01-13 17:03:00,
2013-01-13 10:12:00,5.0,-2.0,29.95,SW,225,1.0,4.0,71,0.00,,,0.00,,2013-01-13 17:12:00,
2013-01-13 10:22:00,6.0,-1.0,29.96,West,269,1.0,6.0,72,0.00,,,0.00,,2013-01-13 17:22:00,
2013-01-13 10:33:00,7.0,0.0,29.96,West,269,0.0,5.0,71,0.00,,,0.00,,2013-01-13 17:33:00,
2013-01-13 10:42:00,7.0,0.0,29.96,West,269,0.0,5.0,71,0.00,,,0.00,,2013-01-13 17:42:00,
2013-01-13 10:53:00,8.0,0.0,29.95,West,269,0.0,2.0,70,0.00,,,0.00,,2013-01-13 17:53:00,
2013-01-13 11:03:00,9.0,2.0,29.94,West,271,0.0,2.0,71,0.00,,,0.00,,2013-01-13 18:03:00,
2013-01-13 11:12:00,9.0,2.0,29.94,West,271,0.0,2.0,71,0.00,,,0.00,,2013-01-13 18:12:00,
2013-01-13 11:23:00,9.0,1.0,29.93,West,272,0.0,4.0,70,0.00,,,0.00,,2013-01-13 18:23:00,
2013-01-13 11:33:00,10.0,2.0,29.92,West,274,0.0,2.0,69,0.00,,,0.00,,2013-01-13 18:33:00,
2013-01-13 11:42:00,10.0,2.0,29.92,West,274,0.0,2.0,69,0.00,,,0.00,,2013-01-13 18:42:00,
2013-01-13 11:53:00,10.0,2.0,29.92,West,274,0.0,2.0,69,0.00,,,0.00,,2013-01-13 18:53:00,
2013-01-13 12:02:00,11.0,3.0,29.92,WNW,289,3.0,4.0,69,0.00,,,0.00,,2013-01-13 19:02:00,
2013-01-13 12:12:00,11.0,3.0,29.92,WNW,289,3.0,4.0,69,0.00,,,0.00,,2013-01-13 19:12:00,
2013-01-13 12:22:00,11.0,2.0,29.91,WNW,290,0.0,2.0,67,0.00,,,0.00,,2013-01-13 19:22:00,
2013-01-13 12:33:00,12.0,3.0,29.90,WNW,290,0.0,3.0,67,0.00,,,0.00,,2013-01-13 19:33:00,
2013-01-13 12:43:00,12.0,3.0,29.90,WNW,290,0.0,3.0,67,0.00,,,0.00,,2013-01-13 19:43:00,
2013-01-13 12:53:00,12.0,2.0,29.91,WNW,292,1.0,3.0,62,0.00,,,0.00,,2013-01-13 19:53:00,
2013-01-13 13:03:00,11.0,2.0,29.91,North,350,0.0,5.0,66,0.00,,,0.00,,2013-01-13 20:03:00,
2013-01-13 13:12:00,11.0,2.0,29.91,North,350,0.0,5.0,66,0.00,,,0.00,,2013-01-13 20:12:00,
2013-01-13 13:22:00,12.0,3.0,29.91,North,350,0.0,3.0,66,0.00,,,0.00,,2013-01-13 20:22:00,
2013-01-13 13:33:00,11.0,2.0,29.90,North,350,1.0,3.0,66,0.00,,,0.00,,2013-01-13 20:33:00,
2013-01-13 13:43:00,11.0,2.0,29.90,North,350,1.0,3.0,66,0.00,,,0.00,,2013-01-13 20:43:00,
2013-01-13 13:53:00,12.0,3.0,29.90,North,352,0.0,4.0,66,0.00,,,0.00,,2013-01-13 20:53:00,
2013-01-13 14:03:00,12.0,3.0,29.91,North,353,0.0,6.0,66,0.00,,,0.00,,2013-01-13 21:03:00,
2013-01-13 14:12:00,12.0,3.0,29.91,North,353,0.0,6.0,66,0.00,,,0.00,,2013-01-13 21:12:00,
2013-01-13 14:23:00,11.0,1.0,29.91,SSW,202,1.0,5.0,64,0.00,,,0.00,,2013-01-13 21:23:00,
2013-01-13 14:33:00,11.0,1.0,29.92,SW,229,0.0,5.0,64,0.00,,,0.00,,2013-01-13 21:33:00,
2013-01-13 14:43:00,11.0,1.0,29.92,SW,229,0.0,5.0,64,0.00,,,0.00,,2013-01-13 21:43:00,
2013-01-13 14:53:00,11.0,2.0,29.93,SW,236,0.0,4.0,65,0.00,,,0.00,,2013-01-13 21:53:00,
2013-01-13 15:02:00,11.0,1.0,29.93,SW,217,0.0,3.0,62,0.00,,,0.00,,2013-01-13 22:02:00,
2013-01-13 15:12:00,11.0,1.0,29.93,SW,217,0.0,3.0,62,0.00,,,0.00,,2013-01-13 22:12:00,
2013-01-13 15:22:00,11.0,0.0,29.94,SSW,211,0.0,5.0,60,0.00,,,0.00,,2013-01-13 22:22:00,
2013-01-13 15:33:00,11.0,0.0,29.95,SW,221,1.0,4.0,61,0.00,,,0.00,,2013-01-13 22:33:00,
2013-01-13 15:43:00,11.0,0.0,29.95,SW,221,1.0,4.0,61,0.00,,,0.00,,2013-01-13 22:43:00,
2013-01-13 15:52:00,11.0,0.0,29.95,SW,222,1.0,4.0,60,0.00,,,0.00,,2013-01-13 22:52:00,
2013-01-13 16:02:00,10.0,0.0,29.96,SW,223,1.0,3.0,62,0.00,,,0.00,,2013-01-13 23:02:00,
2013-01-13 16:12:00,10.0,0.0,29.96,SW,223,1.0,3.0,62,0.00,,,0.00,,2013-01-13 23:12:00,
2013-01-13 16:22:00,10.0,-1.0,29.95,SW,224,1.0,2.0,61,0.00,,,0.00,,2013-01-13 23:22:00,
2013-01-13 16:33:00,10.0,-1.0,29.96,SW,223,0.0,3.0,61,0.00,,,0.00,,2013-01-13 23:33:00,
2013-01-13 16:42:00,10.0,-1.0,29.96,SW,223,0.0,3.0,61,0.00,,,0.00,,2013-01-13 23:42:00,
2013-01-13 16:53:00,9.0,-2.0,29.96,SW,223,0.0,2.0,61,0.00,,,0.00,,2013-01-13 23:53:00,
2013-01-13 17:02:00,9.0,-1.0,29.96,SW,223,1.0,3.0,64,0.00,,,0.00,,2013-01-14 00:02:00,
2013-01-13 17:12:00,9.0,-1.0,29.96,SW,223,1.0,3.0,64,0.00,,,0.00,,2013-01-14 00:12:00,
2013-01-13 17:22:00,9.0,-1.0,29.96,SW,223,0.0,2.0,64,0.00,,,0.00,,2013-01-14 00:22:00,
2013-01-13 17:33:00,8.0,-1.0,29.98,SW,223,0.0,2.0,65,0.00,,,0.00,,2013-01-14 00:33:00,
2013-01-13 17:43:00,8.0,-1.0,29.98,SW,223,0.0,2.0,65,0.00,,,0.00,,2013-01-14 00:43:00,
2013-01-13 17:53:00,8.0,-1.0,29.98,SW,224,0.0,2.0,66,0.00,,,0.00,,2013-01-14 00:53:00,
2013-01-13 18:03:00,8.0,0.0,29.99,SW,224,0.0,0.0,68,0.00,,,0.00,,2013-01-14 01:03:00,
2013-01-13 18:12:00,8.0,0.0,29.99,SW,224,0.0,0.0,68,0.00,,,0.00,,2013-01-14 01:12:00,
2013-01-13 18:22:00,7.0,-1.0,29.98,SW,225,0.0,0.0,69,0.00,,,0.00,,2013-01-14 01:22:00,
2013-01-13 18:32:00,7.0,-1.0,29.99,SW,224,1.0,0.0,70,0.00,,,0.00,,2013-01-14 01:32:00,
2013-01-13 18:42:00,7.0,-1.0,29.99,SW,224,1.0,0.0,70,0.00,,,0.00,,2013-01-14 01:42:00,
2013-01-13 18:53:00,7.0,-1.0,29.99,SW,224,0.0,1.0,70,0.00,,,0.00,,2013-01-14 01:53:00,
2013-01-13 19:02:00,7.0,0.0,30.00,SW,224,0.0,1.0,71,0.00,,,0.00,,2013-01-14 02:02:00,
2013-01-13 19:12:00,7.0,0.0,30.00,SW,224,0.0,1.0,71,0.00,,,0.00,,2013-01-14 02:12:00,
2013-01-13 19:22:00,7.0,0.0,30.00,SW,224,0.0,2.0,72,0.00,,,0.00,,2013-01-14 02:22:00,
2013-01-13 19:32:00,7.0,0.0,29.99,SW,225,0.0,1.0,72,0.00,,,0.00,,2013-01-14 02:32:00,
2013-01-13 19:42:00,7.0,0.0,29.99,SW,225,0.0,1.0,72,0.00,,,0.00,,2013-01-14 02:42:00,
2013-01-13 19:53:00,7.0,0.0,29.99,SW,223,1.0,2.0,73,0.00,,,0.00,,2013-01-14 02:53:00,
2013-01-13 20:02:00,7.0,0.0,29.99,SW,224,0.0,2.0,73,0.00,,,0.00,,2013-01-14 03:02:00,
2013-01-13 20:12:00,7.0,0.0,29.99,SW,224,0.0,2.0,73,0.00,,,0.00,,2013-01-14 03:12:00,
2013-01-13 20:22:00,6.0,0.0,29.98,SW,224,1.0,2.0,74,0.00,,,0.00,,2013-01-14 03:22:00,
2013-01-13 20:32:00,6.0,0.0,30.00,SW,225,1.0,2.0,74,0.00,,,0.00,,2013-01-14 03:32:00,
2013-01-13 20:42:00,6.0,0.0,30.00,SW,225,1.0,2.0,74,0.00,,,0.00,,2013-01-14 03:42:00,
2013-01-13 20:53:00,6.0,0.0,30.00,SW,224,1.0,2.0,75,0.00,,,0.00,,2013-01-14 03:53:00,
2013-01-13 21:02:00,6.0,0.0,30.00,SW,224,0.0,3.0,76,0.00,,,0.00,,2013-01-14 04:02:00,
2013-01-13 21:12:00,6.0,0.0,30.00,SW,224,0.0,3.0,76,0.00,,,0.00,,2013-01-14 04:12:00,
2013-01-13 21:22:00,6.0,0.0,30.01,SW,223,0.0,2.0,76,0.00,,,0.00,,2013-01-14 04:22:00,
2013-01-13 21:32:00,6.0,0.0,29.99,SW,223,0.0,2.0,75,0.00,,,0.00,,2013-01-14 04:32:00,
2013-01-13 21:42:00,6.0,0.0,29.99,SW,223,0.0,2.0,75,0.00,,,0.00,,2013-01-14 04:42:00,
2013-01-13 21:53:00,6.0,0.0,29.99,SW,223,0.0,0.0,75,0.00,,,0.00,,2013-01-14 04:53:00,
2013-01-13 22:03:00,6.0,0.0,29.98,SW,223,0.0,1.0,75,0.00,,,0.00,,2013-01-14 05:03:00,
2013-01-13 22:12:00,6.0,0.0,29.98,SW,223,0.0,1.0,75,0.00,,,0.00,,2013-01-14 05:12:00,
2013-01-13 22:22:00,5.0,-1.0,30.00,SW,224,0.0,0.0,74,0.00,,,0.00,,2013-01-14 05:22:00,
2013-01-13 22:32:00,4.0,-3.0,29.98,SW,225,0.0,0.0,73,0.00,,,0.00,,2013-01-14 05:32:00,
2013-01-13 22:42:00,4.0,-3.0,29.98,SW,225,0.0,0.0,73,0.00,,,0.00,,2013-01-14 05:42:00,
2013-01-13 22:53:00,3.0,-4.0,29.98,SW,224,0.0,0.0,73,0.00,,,0.00,,2013-01-14 05:53:00,
2013-01-13 23:02:00,2.0,-4.0,29.98,SW,224,0.0,0.0,74,0.00,,,0.00,,2013-01-14 06:02:00,
2013-01-13 23:12:00,2.0,-4.0,29.98,SW,224,0.0,0.0,74,0.00,,,0.00,,2013-01-14 06:12:00,
2013-01-13 23:22:00,2.0,-4.0,29.99,SW,224,0.0,0.0,74,0.00,,,0.00,,2013-01-14 06:22:00,
2013-01-13 23:33:00,1.0,-5.0,29.98,SW,223,0.0,0.0,74,0.00,,,0.00,,2013-01-14 06:33:00,
2013-01-13 23:42:00,1.0,-5.0,29.98,SW,223,0.0,0.0,74,0.00,,,0.00,,2013-01-14 06:42:00,
2013-01-13 23:53:00,1.0,-5.0,29.98,SW,224,0.0,0.0,75,0.00,,,0.00,,2013-01-14 06:53:00,